Погода в Усть-Пыжа

Россия / Республика Алтай     51°51′32″N   87°05′32″E
темп.,
°C
ветер,
м/с
пор.,
м/с
влажн.,
%
обл.,
%
осадки,
мм/ч
давл.,
гПа
погр.,
м
17 апреля, сб
сб1701:00+4ю349213 0.0 101755
04:00+3ю3490100 0.0 101564
07:00+3ю348496 0.0 101563
10:00+9ссз1172100 0.0 1014285
13:00+8сз5784100 0.6 1016835
16:00+1сз1299100 3.0 1021113
19:00+1сз11100100 7.0 102378
22:000зсз00100100 0.6 102467
18 апреля, вс
вс1801:000ю019696 0.8 1024118
04:00−3ююз119829 0.0 102315
07:00−3ю119428 0.0 102367
10:00+3с218215 0.0 1019379
13:00+7с217583 0.0 1017873
16:00+6ссз1275100 0.0 1016914
19:00+5ююв128515 0.0 1015103
22:00+1ююв339475 0.0 101548
19 апреля, пн
пн1901:00+2ююв35813 0.0 101160
04:00+7ююз513601 0.0 1007300
07:00+2сз2898100 0.9 1012686
10:00−3сз51190100 5.5 1020915
13:00−2сз2581100 7.1 1022996
16:00−1сз2476100 0.8 1022981
19:00−2сз2478100 1.4 1023790
22:00−4ююз1193100 0.3 102519
20 апреля, вт
вт2001:00−5юз1197100 0.6 102569
04:00−5ссз1396100 1.1 1025364
07:00−6с2392100 1.9 1026408
10:00−4с2279100 0.4 1025883
13:00−2с2267100 0.7 10231234
16:00−2с2366100 0.3 10221223
19:00−2ссз2366100 0.6 10221169
22:00−5з1187100 0.1 102425
21 апреля, ср
ср2101:00−6юз1185100 0.1 102550
04:00−8ююз239097 0.1 102667
07:00−9ю248447 0.1 102899
10:00−3юз015343 0.0 10271326
13:000с134897 0.0 10241633
16:00+1с1246100 0.0 10231537
19:000всв1160100 0.0 1023198
22:00−4ююв1185100 0.0 102526